Regional Weather Roundup
Issued by NWS

Home | Current Version | Previous Version | Text Only | Print | Product List | Glossary On
Versions: 1 2 3 4 5 6 7 8 9 10 11 12 13 14 15 16 17 18 19 20 21 22 23 24 25 26 27
000
ASUS46 KPQR 221110
RWROR

OREGON REGIONAL WEATHER ROUNDUP
NATIONAL WEATHER SERVICE PORTLAND OR
400 AM PDT TUE AUG 22 2017

NOTE: "FAIR" INDICATES FEW OR NO CLOUDS BELOW 12,000 FEET WITH
NO SIGNIFICANT WEATHER AND/OR OBSTRUCTIONS TO VISIBILITY.

ORZ001>013-221200-
NORTHWEST OREGON


CITY           SKY/WX    TMP DP  RH WIND       PRES   REMARKS
ASTORIA        FOG       52  51  97 SW3       29.99R VSB 1
NEWPORT        CLOUDY    54  54 100 SW5       30.08R FOG
PORTLAND       CLEAR     65  60  84 E3        29.97R
VANCOUVER WA   CLEAR     61  54  77 CALM      29.97R
SCAPPOOSE      CLEAR     61  53  75 CALM      29.96R
HILLSBORO      CLEAR     58  53  84 NW3       29.97R
AURORA         NOT AVBL
MCMINNVILLE    CLEAR     61  57  87 CALM      29.98R
SALEM          CLEAR     62  56  80 CALM      29.97R
CORVALLIS      CLEAR     59  54  82 W6        30.01R
EUGENE         CLEAR     59  56  89 SW12      30.02R
$$

ORZ021-028-221200-
SOUTHWEST OREGON


CITY           SKY/WX    TMP DP  RH WIND       PRES   REMARKS
NORTH BEND     CLOUDY    56  55  97 CALM      30.08F
BROOKINGS      CLOUDY    53  52  96 CALM      30.05S FOG
ROSEBURG       CLEAR     62  56  80 CALM      30.02S HAZE
SEXTON SUMMIT  CLOUDY    60  50  69 N10       30.12S HAZE
GRANTS PASS    CLOUDY    55  50  82 CALM      30.08R
MEDFORD        CLOUDY    61  52  72 CALM      30.04R HAZE
$$

ORZ014>016-041-221200-
COLUMBIA GORGE


CITY           SKY/WX    TMP DP  RH WIND       PRES   REMARKS
TROUTDALE      CLEAR     60  54  80 E5        29.97R
HOOD RIVER     CLEAR     55  46  71 CALM      30.00R
THE DALLES     CLEAR     61  47  59 CALM      29.97S
$$

ORZ029>031-041-044-049-050-061>064-502-503-505>511-221200-
EASTERN OREGON


CITY           SKY/WX    TMP DP  RH WIND       PRES   REMARKS
MADRAS         CLEAR     52  41  66 SE8       30.08R
REDMOND        CLEAR     52  35  52 CALM      30.09R
BEND           CLEAR     57  39  51 S5        30.12R
PRINEVILLE     CLEAR     52  36  54 CALM      30.11S
KLAMATH FALLS  PTCLDY    55  49  80 CALM      30.14R
LAKEVIEW       CLEAR    N/A N/A N/A N7        30.19R
HERMISTON      CLEAR     57  47  69 CALM      29.96S
PENDLETON      CLEAR     62  43  49 SE9       29.99S
JOHN DAY       CLEAR     60  33  36 CALM      30.13R
MEACHAM        CLEAR     42  35  76 CALM      30.12S
LA GRANDE      NOT AVBL
BAKER CITY     CLEAR     46  41  82 CALM      30.13R
BURNS          CLEAR     51  32  48 W8        30.15R
ROME             N/A     55  27  34 SE6       30.13S
ONTARIO        CLEAR     55  47  74 CALM      30.06S
$$




USA.gov is the U.S. government's official web portal to all federal, state and local government web resources and services.